Regional Weather Roundup
Issued by NWS

Home | Current Version | Previous Version | Graphics & Text | Print | Product List | Glossary Off
Versions: 1 2 3 4 5 6 7 8 9 10 11 12 13 14 15 16 17 18 19 20 21 22 23 24 25 26 27 28 29 30 31 32 33 34 35 36 37 38 39 40 41 42 43 44 45 46 47 48 49 50

000
ASUS43 KTOP 270859
RWRKS

WEATHER ROUNDUP FOR KANSAS
NATIONAL WEATHER SERVICE GOODLAND KS
300 AM CST TUE JAN 27 2015

NOTE:  "FAIR" INDICATES FEW OR NO CLOUDS BELOW 12,000 FEET WITH NO
SIGNIFICANT WEATHER AND/OR OBSTRUCTIONS TO VISIBILITY.

KSZ001>006-013>018-027>032-041>047-271000-
NORTHWEST KANSAS

CITY           SKY/WX    TMP DP  RH WIND       PRES   REMARKS
GOODLAND       CLEAR     45  30  55 W14       30.12S
HAYS           CLEAR     34  21  60 W3        30.10S
HILL CITY      CLEAR     37  28  70 W5        30.10R
RUSSELL        CLEAR     33  28  81 SW7       30.08S
$$

KSZ061>065-074>080-084>089-271000-
SOUTHWEST KANSAS

CITY           SKY/WX    TMP DP  RH WIND       PRES   REMARKS
DODGE CITY     CLEAR     41  29  62 SW6       30.14S
ELKHART          N/A     45  30  55 W10         N/A
GARDEN CITY    CLEAR     36  30  79 W7        30.14S
GREAT BEND     CLEAR     34  25  69 W3        30.11S
LIBERAL        CLEAR     39  28  65 W7        30.17F
$$

KSZ066>073-081>083-090>101-271000-
SOUTHEAST KANSAS

CITY           SKY/WX    TMP DP  RH WIND       PRES   REMARKS
CHANUTE        CLEAR     33  30  88 W3        30.09R
COFFEYVILLE    CLEAR     33  30  88 NE3       30.08R
HUTCHINSON     CLEAR     37  30  75 W5        30.09S
MEDICINE LODGE   N/A     37  30  75 N7        30.10R
NEWTON         CLEAR     41  28  60 NW5       30.11R
PARSONS        CLEAR     34  31  88 CALM      30.09R
WICHITA INTL   CLEAR     44  32  62 NW6       30.09R
WICHITA JABRA  CLEAR     44  32  62 NW6       30.09R
WINFIELD       CLEAR     34  28  79 CALM      30.10R
$$

KSZ007>012-019>026-033>040-048>060-102>105-271000-
NORTHEAST KANSAS

CITY           SKY/WX    TMP DP  RH WIND       PRES   REMARKS
CONCORDIA      CLEAR     39  32  76 CALM      30.09R
EMPORIA        CLEAR     38  29  70 NW5       30.09R
LAWRENCE       CLEAR     24  21  88 N5        30.09R
MANHATTAN      CLEAR     27  24  89 CALM      30.11R
OLATHE IND     CLEAR     34  29  82 NW6       30.08R
OLATHE EXE     CLEAR     39  31  72 NW6       30.07R
SALINA         CLEAR     35  28  75 CALM      30.10R
TOPEKA BILLARD CLEAR     32  26  78 CALM      30.10R
TOPEKA FORBES  CLEAR     32  25  75 W5        30.08R
$$



USA.gov is the U.S. government's official web portal to all federal, state and local government web resources and services.